Theta_e
288 284 281 285 287 287 286 284 283 286 290 289 288 289 292 294 293 293 295 295 297 299 303 305 307 309 310 313 321 323 325 330 330 331 333 333 333 335 335 337 338 337 337 336
285 281 287 290 289 287 285 283 283 287 291 289 288 288 291 292 292 293 294 295 295 297 299 303 303 306 308 308 311 318 322 324 327 332 336 336 336 336 337 339 340 339 339 337
283 286 291 289 286 287 285 284 284 285 289 289 287 284 286 291 293 294 295 295 296 295 296 298 301 303 303 305 307 310 315 322 323 324 333 332 333 333 335 336 338 340 340 339
285 289 289 286 286 288 282 290 289 287 284 277 287 276 283 286 288 291 293 292 293 296 299 300 302 302 304 307 306 308 311 315 319 323 326 332 332 332 335 337 338 337 340 340
285 286 286 284 286 290 285 291 287 287 282 280 282 278 281 287 285 287 290 292 296 298 299 300 301 303 305 307 306 306 307 311 316 320 324 327 331 333 335 329 333 332 337 339
287 290 289 288 291 291 291 287 284 282 280 274 280 279 278 282 285 289 293 296 297 298 299 300 301 303 303 305 306 307 306 309 317 319 323 327 331 332 325 326 329 329 331 333
285 286 291 293 286 288 285 280 273 273 273 274 282 279 282 287 291 291 293 295 296 297 297 297 298 299 301 302 305 308 309 307 312 320 324 330 332 333 329 329 329 326 328 331
280 280 287 293 287 284 281 281 273 269 272 273 281 277 281 290 293 295 297 296 297 297 296 296 298 299 301 303 304 307 308 308 309 318 323 328 333 334 332 331 329 328 329 331
282 283 291 292 291 289 283 279 282 274 276 274 278 281 288 291 291 295 294 296 295 295 296 297 298 299 300 303 304 306 307 309 312 311 319 324 329 328 329 327 329 328 331 334
286 281 289 291 291 290 286 287 276 276 271 272 276 278 280 285 288 291 291 292 293 295 296 298 299 301 303 304 304 306 306 309 313 314 313 322 325 328 327 325 327 330 332 336
287 283 284 288 285 283 283 281 282 279 278 275 274 277 286 287 288 289 291 294 295 296 297 298 300 302 302 303 304 305 306 308 310 314 311 318 320 324 325 327 329 331 333 335
288 283 280 283 289 290 286 284 282 276 273 280 273 279 290 290 289 291 291 293 296 298 298 298 299 302 302 304 304 304 305 306 310 316 313 315 321 325 327 329 331 333 334 336
288 281 277 279 282 286 284 287 287 287 285 280 277 279 290 291 292 293 293 294 296 297 296 301 304 305 305 308 309 305 306 307 311 319 312 317 323 327 328 330 331 333 334 335
293 282 280 276 280 282 281 285 287 286 281 280 281 282 287 289 290 291 292 294 295 296 298 303 302 303 304 306 311 306 306 309 313 322 317 320 325 329 330 331 332 334 335 335
288 283 284 285 287 287 286 285 286 285 286 282 284 283 287 290 290 292 293 294 295 295 296 303 302 303 303 305 308 316 319 316 320 326 323 325 329 331 332 333 333 335 335 336
289 281 284 281 286 286 284 286 287 287 287 287 287 286 293 294 294 293 293 294 294 296 298 301 302 304 304 305 308 313 319 321 330 328 329 332 332 332 333 332 334 335 335 334
286 282 282 279 285 284 280 285 287 288 291 289 284 288 292 292 293 293 293 294 294 296 299 300 302 304 306 307 309 311 319 323 330 331 334 334 332 332 333 334 335 333 331 332
283 283 285 280 280 274 283 292 292 289 291 292 290 290 292 293 294 295 295 294 295 297 298 300 301 304 306 308 310 315 320 322 328 332 332 332 333 332 332 332 330 329 328 326
287 286 283 280 278 281 285 290 289 286 287 292 290 292 292 292 293 293 296 297 297 298 299 300 303 306 307 308 310 317 320 319 322 329 330 331 331 330 328 326 326 325 324 322
289 289 286 282 277 274 282 292 294 293 283 293 292 292 292 292 284 289 297 298 299 300 301 302 304 307 308 309 312 318 318 318 319 330 330 331 329 327 326 326 325 324 323 320
285 285 282 280 279 281 288 293 293 283 283 292 295 293 293 290 292 296 299 298 300 300 301 304 306 306 308 312 316 318 318 317 322 331 328 327 328 326 326 326 324 321 319 318
277 277 275 279 276 273 293 291 286 291 294 295 294 293 292 295 297 297 297 298 300 301 302 305 305 306 310 313 317 317 319 323 326 328 326 326 325 327 326 324 321 320 318 317
277 282 282 283 279 288 295 294 298 298 296 294 293 294 295 297 296 297 298 300 301 302 303 305 306 308 312 316 318 317 319 325 326 325 324 324 325 325 325 322 320 319 319 318
286 287 282 286 288 291 294 297 298 298 295 294 294 294 297 295 296 297 299 299 300 302 303 306 307 309 311 317 319 319 323 325 325 323 323 323 323 322 323 323 322 321 319 318
287 286 285 286 291 293 296 297 297 296 294 294 297 297 296 297 297 298 298 299 301 302 305 307 309 311 314 319 320 322 323 325 322 322 322 322 322 320 313 308 317 321 321 318
288 288 287 286 293 294 294 297 297 293 293 296 295 296 297 297 297 298 298 300 302 303 305 308 312 317 320 322 321 322 324 323 321 320 320 319 318 316 315 314 310 295 299 300
Wind_Speed
4 5 2 5 6 4 2 3 3 4 4 7 10 12 11 7 6 9 7 8 6 7 5 6 8 10 10 9 7 7 6 10 7 5 6 5 10 8 11 9 12 12 8 12
6 2 6 3 3 4 4 3 2 5 5 5 9 20 16 8 6 5 6 8 9 6 6 6 7 6 8 10 10 8 8 8 7 8 6 5 6 7 4 3 6 6 9 10
4 4 3 2 1 2 1 3 2 5 4 5 7 10 3 2 4 6 7 8 6 7 8 6 6 7 7 8 10 11 10 10 8 8 3 3 2 1 1 3 4 8 9 9
4 3 0 2 2 4 1 4 2 4 7 3 5 10 4 3 4 5 10 8 7 7 6 5 5 8 8 6 8 10 11 10 9 8 8 11 12 13 11 11 6 6 10 11
6 2 2 1 3 4 6 2 2 3 2 2 5 3 7 8 6 5 8 9 7 8 7 8 9 8 11 8 7 8 9 10 12 9 12 12 14 12 9 4 7 7 9 10
7 2 3 6 2 1 3 3 5 4 3 2 5 4 4 3 2 8 11 7 8 8 8 7 8 9 8 8 7 7 8 9 9 8 10 14 15 13 5 4 6 5 4 6
2 2 1 2 2 3 5 6 5 6 4 5 4 4 13 10 16 7 9 9 9 8 8 8 9 10 11 10 9 7 7 10 8 9 9 12 15 13 13 12 8 6 5 5
4 3 3 1 4 5 2 7 6 5 4 5 1 9 10 7 7 7 8 9 9 10 7 9 12 10 10 13 12 9 8 9 8 8 11 9 12 8 9 10 9 7 7 6
3 4 3 2 4 6 2 3 3 2 2 2 6 7 12 15 12 9 9 7 10 10 12 11 11 9 10 13 13 11 12 11 8 10 9 10 10 10 10 10 8 7 5 6
4 3 4 3 1 2 6 6 2 3 2 6 6 7 13 9 10 9 9 8 10 10 14 15 9 8 11 12 13 11 11 14 11 9 10 10 12 11 11 7 9 8 6 8
3 3 4 1 4 7 1 2 2 3 4 4 6 11 5 9 9 7 9 10 12 18 17 16 13 11 13 13 13 13 11 14 11 10 10 10 9 10 10 10 6 6 7 9
3 4 4 9 7 2 6 7 6 5 4 5 4 18 3 8 4 5 9 8 12 15 16 10 12 14 12 16 15 13 11 11 12 12 9 11 8 8 10 10 9 9 10 10
5 1 3 7 4 4 2 4 3 1 3 15 10 12 5 7 11 16 16 8 10 13 10 8 8 11 13 18 18 16 13 12 12 11 9 8 10 11 12 11 11 11 12 11
5 5 8 8 6 3 8 13 14 13 6 9 14 26 19 18 17 11 8 8 12 13 14 9 10 12 12 18 20 18 15 13 13 10 10 11 12 13 12 11 12 12 12 13
7 6 5 10 14 13 17 20 17 16 18 14 20 19 24 20 15 7 6 10 15 16 14 10 13 13 12 18 21 18 16 16 12 10 11 12 9 10 11 13 14 13 12 11
1 2 2 7 13 12 14 16 14 16 17 18 18 20 19 11 8 10 10 13 16 18 16 13 15 15 18 18 19 21 18 16 11 10 10 11 12 13 15 14 14 13 12 12
4 2 4 6 3 7 9 9 7 4 5 5 9 12 14 11 14 14 12 13 17 16 14 17 14 14 17 18 18 20 18 15 11 11 12 13 12 14 14 14 14 13 13 13
5 4 2 6 4 4 5 4 3 5 10 10 10 13 12 13 19 20 16 18 15 13 19 18 15 12 15 21 20 19 14 12 9 12 13 16 15 14 14 13 13 12 11 13
9 5 3 4 3 8 8 1 3 1 11 11 12 7 14 16 21 20 10 7 11 18 19 17 18 17 16 14 19 17 11 8 7 10 11 13 15 15 15 14 13 12 12 10
7 8 3 2 3 5 6 2 4 4 12 5 6 16 19 18 17 15 13 16 20 22 17 16 20 18 18 17 17 13 10 9 6 7 11 11 14 16 15 15 14 10 11 10
3 3 9 6 6 8 2 2 3 6 5 11 17 16 19 18 14 20 19 21 20 18 20 19 19 18 18 17 14 13 10 11 6 6 10 12 13 15 16 14 13 13 12 11
4 4 4 2 3 9 4 4 3 6 18 18 17 17 19 20 18 21 21 19 19 21 21 19 18 17 17 16 12 10 8 6 9 10 12 13 14 12 12 15 13 13 13 13
3 6 3 7 8 4 5 6 15 15 14 14 13 17 17 17 21 21 19 19 18 20 19 17 16 17 16 13 10 7 5 2 16 14 12 14 14 13 13 15 13 11 11 10
4 3 4 3 4 7 9 15 14 12 13 12 14 17 16 18 21 20 18 18 18 19 19 18 18 18 16 11 8 4 5 8 16 15 13 12 14 13 12 11 10 10 9 8
6 2 4 6 13 13 13 12 12 10 10 12 12 15 20 18 17 18 18 19 18 19 19 16 15 15 18 14 9 8 7 15 16 13 13 13 12 13 11 8 5 8 6 10
1 3 3 4 16 13 15 13 14 10 14 14 20 20 15 15 17 17 17 17 17 19 20 18 13 9 12 12 13 10 9 17 18 14 11 10 10 10 10 10 9 18 10 13
Wind_Direction
11 70 183 226 199 198 198 191 231 275 312 1 301 290 291 262 267 284 296 305 290 279 257 287 300 311 319 310 272 225 229 218 162 156 172 195 212 225 211 210 215 209 180 176
23 204 213 244 191 185 168 164 249 290 278 320 275 283 288 257 225 213 280 280 275 285 297 304 316 309 309 304 309 288 237 249 232 190 182 185 210 240 250 145 198 176 183 170
165 233 182 189 88 90 305 160 248 234 287 259 322 289 128 249 258 250 259 266 267 257 290 310 322 310 308 307 307 305 277 251 216 227 107 98 113 128 135 212 210 201 176 168
234 268 23 326 255 137 316 205 235 305 20 310 56 286 306 270 290 286 278 274 278 301 307 293 292 301 302 288 285 284 291 284 255 219 214 213 217 220 224 229 194 174 172 187
252 215 205 133 223 178 222 164 287 268 260 41 292 292 265 353 282 291 287 281 281 270 262 290 295 272 289 288 268 271 280 270 267 253 226 223 227 232 222 177 175 175 183 193
246 242 204 193 130 59 56 21 20 45 84 30 248 183 258 251 194 307 300 279 274 294 299 286 278 280 273 284 280 271 269 269 261 238 230 220 227 217 190 182 188 188 178 184
290 210 65 106 88 7 78 53 344 342 359 228 191 291 255 271 288 266 268 279 285 284 288 295 301 302 304 295 290 283 284 295 285 255 224 216 226 229 204 202 201 167 164 194
170 290 146 99 185 199 200 149 159 239 233 242 28 249 255 239 246 244 250 267 287 291 285 278 276 275 282 294 288 281 277 276 283 263 253 230 219 223 231 212 200 189 191 189
160 267 297 210 191 133 162 188 197 136 268 344 225 287 290 279 257 258 260 262 277 289 298 290 289 276 276 286 285 278 282 275 264 268 249 231 220 197 205 212 201 187 158 146
198 293 241 269 43 263 161 167 66 7 290 258 265 257 239 300 282 260 281 300 292 288 294 298 302 285 285 280 278 275 271 269 265 258 249 237 223 210 208 183 191 178 158 143
127 150 286 339 213 205 275 218 91 144 170 236 302 262 197 245 264 287 293 302 304 305 295 297 308 303 287 284 279 269 269 267 266 252 239 225 213 201 186 187 183 165 139 151
186 162 232 233 247 223 179 206 161 148 239 225 212 263 211 253 326 300 294 304 317 313 303 297 299 306 303 303 289 268 264 257 254 254 244 219 207 183 183 179 171 159 167 166
188 220 323 324 4 339 172 179 173 301 243 250 253 264 18 328 306 311 318 318 313 318 305 298 302 315 332 321 308 286 274 262 257 246 233 202 194 188 187 177 165 164 159 158
167 187 185 217 236 181 278 265 267 261 250 280 239 281 284 287 284 298 297 303 308 310 303 286 290 307 331 323 315 291 277 265 253 233 210 196 192 190 177 161 154 160 156 150
158 230 216 255 268 267 260 264 261 244 249 251 283 282 291 288 286 270 277 300 303 305 303 291 303 302 327 313 306 298 289 276 248 210 194 197 176 163 147 153 151 153 148 149
130 273 270 274 256 258 262 253 244 248 249 254 262 266 267 274 286 286 283 299 303 297 290 297 296 315 308 301 292 297 292 287 240 198 187 161 156 162 155 148 148 146 139 140
170 187 307 267 333 318 279 269 202 219 241 212 244 274 315 295 288 286 290 291 287 285 286 296 301 300 295 288 293 290 286 292 246 175 179 155 149 155 147 146 141 139 141 138
175 170 199 285 360 249 249 211 237 242 274 268 280 294 297 302 303 296 300 283 279 285 300 298 297 279 259 280 283 283 276 274 253 162 177 150 152 141 143 140 138 135 138 131
207 184 254 264 221 289 287 81 217 142 282 289 268 297 309 305 302 286 275 261 288 294 291 285 282 277 275 268 278 280 269 259 254 164 158 158 146 141 142 136 132 130 117 118
160 202 258 329 280 271 244 151 77 356 279 87 332 305 298 298 297 301 307 299 296 296 296 289 285 283 278 276 270 271 250 244 234 169 145 146 144 140 139 133 133 110 119 117
156 215 233 252 252 271 313 126 6 261 317 282 305 301 301 294 289 294 302 298 296 293 292 289 286 281 277 277 269 260 226 215 196 154 140 139 136 132 128 123 117 116 113 108
190 179 237 263 261 277 186 326 237 272 283 295 299 295 291 294 296 306 299 295 292 290 292 283 280 276 278 282 268 249 220 197 171 131 129 135 131 128 118 121 115 116 118 113
285 192 221 201 231 227 292 243 285 284 285 283 285 293 296 300 307 303 302 298 293 290 290 288 280 279 276 267 262 199 223 160 140 131 143 132 126 120 132 121 121 116 116 121
283 152 228 347 279 254 305 292 289 286 263 279 285 303 301 308 302 301 305 301 297 295 293 290 287 278 269 257 228 210 138 141 124 142 138 126 128 122 117 116 123 122 121 121
243 220 236 253 276 291 270 295 298 288 284 290 300 311 302 300 302 303 303 299 295 293 289 284 279 281 272 214 183 133 127 145 122 147 137 135 120 112 98 73 96 127 125 146
237 260 268 277 293 292 296 301 302 300 299 317 308 311 306 304 304 306 299 295 298 300 296 288 289 293 56 97 107 115 135 135 136 134 127 122 120 119 118 111 83 42 75 96